HS5GDX-4 Weather Reports


time (UTC)temp
F
wind
direction
speed
knots
gust
knots
rain 1hr
in
rain 24hr
in
rain mn
in
humidity
%
barometer
mb
20260509124103 94 0 0.0 0.0 0.00 0.00 0.00 43 967.0
20260509122534 94 0 0.0 0.0 0.00 0.00 0.00 44 967.0
20260509121006 95 0 0.0 0.0 0.00 0.00 0.00 42 967.0
20260509115438 95 0 0.0 0.0 0.00 0.00 0.00 42 966.0
20260509113919 94 0 0.0 0.0 0.00 0.00 0.00 43 966.0
20260509113910 94 0 0.0 0.0 0.00 0.00 0.00 43 966.0
20260509112342 95 0 0.0 0.0 0.00 0.00 0.00 42 966.0
20260509110813 94 0 0.0 0.0 0.00 0.00 0.00 45 966.0
20260509105245 94 0 0.0 0.0 0.00 0.00 0.00 44 966.0
20260509103718 95 0 0.0 0.0 0.00 0.00 0.00 44 965.0
20260509102148 95 0 0.0 0.0 0.00 0.00 0.00 44 965.0
20260509101038 95 0 0.0 0.0 0.00 0.00 0.00 44 965.0
20260509095508 95 0 0.0 0.0 0.00 0.00 0.00 44 965.0
20260509093945 95 0 0.0 0.0 0.00 0.00 0.00 44 965.0
20260509093939 95 0 0.0 0.0 0.00 0.00 0.00 44 965.0
20260509092411 96 0 0.0 0.0 0.00 0.00 0.00 42 966.0
20260509090843 96 0 0.0 0.0 0.00 0.00 0.00 42 966.0
20260509090808 96 0 0.0 0.0 0.00 0.00 0.00 42 966.0
20260509085731 95 0 0.0 0.0 0.00 0.00 0.00 44 966.0
20260509084202 94 0 0.0 0.0 0.00 0.00 0.00 45 966.0
20260509082634 94 0 0.0 0.0 0.00 0.00 0.00 44 966.0
20260509081106 96 0 0.0 0.0 0.00 0.00 0.00 42 966.0
20260509075539 92 0 0.0 0.0 0.00 0.00 0.00 46 966.0
20260509074010 92 0 0.0 0.0 0.00 0.00 0.00 45 966.0
20260509072442 92 0 0.0 0.0 0.00 0.00 0.00 46 967.0
20260509070914 91 0 0.0 0.0 0.00 0.00 0.00 47 967.0
20260509065346 91 0 0.0 0.0 0.00 0.00 0.00 47 967.0
20260509063816 91 0 0.0 0.0 0.00 0.00 0.00 48 967.0
20260509063602 90 0 0.0 0.0 0.00 0.00 0.00 49 967.0
20260509055551 93 0 0.0 0.0 0.00 0.00 0.00 46 968.0
20260509052611 93 0 0.0 0.0 0.00 0.00 0.00 46 969.0
20260509050752 92 0 0.0 0.0 0.00 0.00 0.00 47 969.0
20260509045208 93 0 0.0 0.0 0.00 0.00 0.00 46 969.0
20260509043639 91 0 0.0 0.0 0.00 0.00 0.00 49 969.0
20260509042111 93 0 0.0 0.0 0.00 0.00 0.00 47 970.0
20260509040543 92 0 0.0 0.0 0.00 0.00 0.00 48 970.0
20260509035015 91 0 0.0 0.0 0.00 0.00 0.00 50 970.0
20260509033445 92 0 0.0 0.0 0.00 0.00 0.00 49 970.0
20260509033226 93 0 0.0 0.0 0.00 0.00 0.00 48 970.0
20260509032745 92 0 0.0 0.0 0.00 0.00 0.00 50 970.0
20260509032742 92 0 0.0 0.0 0.00 0.00 0.00 50 970.0
20260509031213 92 0 0.0 0.0 0.00 0.00 0.00 51 971.0
20260509025647 91 0 0.0 0.0 0.00 0.00 0.00 52 971.0
20260509024117 91 0 0.0 0.0 0.00 0.00 0.00 51 971.0
20260509022549 91 0 0.0 0.0 0.00 0.00 0.00 51 971.0
20260509021020 91 0 0.0 0.0 0.00 0.00 0.00 53 971.0
20260509015451 91 0 0.0 0.0 0.00 0.00 0.00 52 971.0
20260509013922 91 0 0.0 0.0 0.00 0.00 0.00 52 971.0
20260509012353 91 0 0.0 0.0 0.00 0.00 0.00 51 971.0
20260509010824 89 0 0.0 0.0 0.00 0.00 0.00 52 971.0
20260509005254 88 0 0.0 0.0 0.00 0.00 0.00 54 971.0
20260509003725 87 0 0.0 0.0 0.00 0.00 0.00 58 970.0
20260509002156 87 0 0.0 0.0 0.00 0.00 0.00 56 970.0
20260509000627 89 0 0.0 0.0 0.00 0.00 0.00 52 970.0
20260508235059 91 0 0.0 0.0 0.00 0.00 0.00 48 970.0
20260508233529 91 0 0.0 0.0 0.00 0.00 0.00 48 969.0
20260508232002 91 0 0.0 0.0 0.00 0.00 0.00 48 969.0
20260508232000 91 0 0.0 0.0 0.00 0.00 0.00 48 969.0
20260508230431 91 0 0.0 0.0 0.00 0.00 0.00 48 969.0
20260508224903 92 0 0.0 0.0 0.00 0.00 0.00 46 969.0
20260508223334 90 0 0.0 0.0 0.00 0.00 0.00 47 969.0
20260508221804 91 0 0.0 0.0 0.00 0.00 0.00 46 969.0
20260508220235 92 0 0.0 0.0 0.00 0.00 0.00 45 968.0
20260508214706 91 0 0.0 0.0 0.00 0.00 0.00 47 968.0
20260508213137 90 0 0.0 0.0 0.00 0.00 0.00 47 968.0
20260508211609 90 0 0.0 0.0 0.00 0.00 0.00 47 968.0
20260508210041 91 0 0.0 0.0 0.00 0.00 0.00 47 968.0
20260508204513 92 0 0.0 0.0 0.00 0.00 0.00 45 968.0
20260508202944 93 0 0.0 0.0 0.00 0.00 0.00 44 968.0
20260508201414 92 0 0.0 0.0 0.00 0.00 0.00 45 968.0
20260508195847 91 0 0.0 0.0 0.00 0.00 0.00 47 968.0
20260508194317 93 0 0.0 0.0 0.00 0.00 0.00 44 968.0
20260508192750 92 0 0.0 0.0 0.00 0.00 0.00 44 968.0
20260508191220 92 0 0.0 0.0 0.00 0.00 0.00 45 968.0
20260508185654 89 0 0.0 0.0 0.00 0.00 0.00 48 968.0
20260508185650 89 0 0.0 0.0 0.00 0.00 0.00 48 968.0
20260508184122 88 0 0.0 0.0 0.00 0.00 0.00 48 968.0
20260508182553 88 0 0.0 0.0 0.00 0.00 0.00 48 968.0
20260508181026 87 0 0.0 0.0 0.00 0.00 0.00 50 968.0
20260508175457 87 0 0.0 0.0 0.00 0.00 0.00 51 968.0
20260508173937 86 0 0.0 0.0 0.00 0.00 0.00 53 968.0
20260508173928 86 0 0.0 0.0 0.00 0.00 0.00 53 968.0
20260508173900 86 0 0.0 0.0 0.00 0.00 0.00 52 968.0
20260508173705 86 0 0.0 0.0 0.00 0.00 0.00 52 968.0
20260508165750 90 0 0.0 0.0 0.00 0.00 0.00 48 969.0
20260508164220 90 0 0.0 0.0 0.00 0.00 0.00 48 969.0
20260508162650 90 0 0.0 0.0 0.00 0.00 0.00 47 969.0
20260508161121 91 0 0.0 0.0 0.00 0.00 0.00 46 969.0
20260508155553 92 0 0.0 0.0 0.00 0.00 0.00 45 969.0
20260508154024 93 0 0.0 0.0 0.00 0.00 0.00 45 969.0
20260508152456 92 0 0.0 0.0 0.00 0.00 0.00 45 969.0
20260508150927 92 0 0.0 0.0 0.00 0.00 0.00 47 968.0
20260508150250 93 0 0.0 0.0 0.00 0.00 0.00 45 968.0
20260508144722 95 0 0.0 0.0 0.00 0.00 0.00 43 968.0
20260508143154 95 0 0.0 0.0 0.00 0.00 0.00 43 968.0
20260508141625 95 0 0.0 0.0 0.00 0.00 0.00 43 967.0
20260508140056 96 0 0.0 0.0 0.00 0.00 0.00 42 967.0
20260508134528 95 0 0.0 0.0 0.00 0.00 0.00 43 966.0
20260508133000 95 0 0.0 0.0 0.00 0.00 0.00 43 966.0
20260508131433 96 0 0.0 0.0 0.00 0.00 0.00 42 966.0
20260508125906 96 0 0.0 0.0 0.00 0.00 0.00 42 965.0